Flag Weather past 2 weeks in Traralgon, Victoria, Australia

Now
52 °F

Cool.


Feels Like: 51 °F
Forecast: 41 / 81 °F
Wind: 3 mph from East

Location: Latrobe Valley Airport

Current Time: Nov 29, 2014 at 3:19:25 AM

Latest Report: Nov 29, 2014 at 1:00 AM


Visibility: N/A

Pressure: 30.08 "Hg

Humidity: 98%

Dew point: 51 °F

Location of TraralgonLocation

Historic Weather in Traralgon — Graph

°F

Traralgon temperature yesterday

Maximum temperature yesterday: 77 °F (at 4:00 PM)
Minimum temperature yesterday: 48 °F (at 4:00 AM)
Average temperature yesterday: 61 °F

Past Weeks' High & Low Weather Summary

 TemperatureHumidityPressure
High86 °F (Nov 20, 3:00 PM)100% (Nov 16, 12:00 AM)30.29 "Hg (Nov 16, 12:00 AM)
Low47 °F (Nov 19, 1:00 AM)27% (Nov 20, 3:00 PM)29.65 "Hg (Nov 20, 3:00 PM)
Average60 °F75%29.94 "Hg
* Reported Nov 14 1:00 AM — Nov 29 1:00 AM, Traralgon, Weather by CustomWeather, © 2014

Note: Actual official high and low records may vary slightly from our data, if they occured in-between our weather recording intervals... More about our weather records

Advertising

Traralgon weather history for previous 24 hours

 ConditionsComfort  
Time TempWeatherWind HumidityBarometerVisibility
1:00 AM
Nov 29
52 °FCool.3 mph98%30.08 "HgN/A
12:00 AM52 °FCool.6 mph93%30.11 "HgN/A
10:00 PM
Nov 28
58 °FCool.7 mph72%30.14 "HgN/A
9:00 PM60 °FCool.8 mph67%30.12 "HgN/A
7:00 PM68 °FMild.14 mph56%30.09 "HgN/A
6:00 PM72 °FMild.13 mph53%30.08 "HgN/A
4:00 PM77 °FWarm.6 mph41%30.09 "HgN/A
3:00 PM76 °FMild.3 mph39%30.11 "HgN/A
1:00 PM71 °FMild.5 mph44%30.16 "HgN/A
12:00 PM67 °FMild.3 mph49%30.18 "HgN/A
10:00 AM62 °FCool.3 mph64%30.23 "HgN/A
9:00 AM58 °FScattered clouds.6 mph73%30.24 "HgN/A
7:00 AM51 °FCool.No wind100%30.22 "HgN/A
6:00 AM50 °FOvercast.No wind100%30.21 "HgN/A
4:00 AM48 °FCool.1 mph99%30.19 "HgN/A
3:00 AM48 °FPassing clouds.5 mph99%30.19 "HgN/A
Weather by CustomWeather, © 2014

See weather overviewHow to use our weather pages